Location: Unspecified
(0.0000°N, 0.0000°E)
Time: 02:04:10
(UTC+00:00)

Vanguard 1 Rocket - Visible Passes

Search period start: 21 May 2024 00:00
Search period end: 31 May 2024 00:00
Orbit: 651 x 4220 km, 34.3° (Epoch: 20 May)

Date Brightness Start Highest point End Pass type
(mag) Time Alt. Az. Time Alt. Az. Time Alt. Az.
21 May 10.9 02:59:14 26° S 03:09:11 35° SSE 03:31:30 10° E visible
21 May 10.9 05:18:39 10° SW 05:44:05 78° SE 06:06:46 10° ENE visible
21 May 6.9 18:13:10 10° WNW 18:17:31 80° SW 18:22:58 10° SE visible
22 May 11.1 01:51:26 23° SSE 01:52:10 23° SSE 02:10:00 10° ESE visible
22 May 10.9 04:08:40 20° SSW 04:27:20 58° SE 04:51:35 10° ENE visible
22 May 8.9 19:27:37 10° WSW 19:31:13 20° SSW 19:33:36 16° S visible
23 May 11.6 00:43:39 11° SE 00:43:39 11° SE 00:45:06 10° SE visible
23 May 10.8 03:00:53 31° S 03:10:38 41° SE 03:34:10 10° E visible
23 May 10.8 05:19:38 10° SW 05:44:51 89° SE 06:08:02 10° NE visible
23 May 7.6 18:14:56 10° WNW 18:19:07 43° SSW 18:24:07 10° SE visible
24 May 11.0 01:53:06 27° SSE 01:54:08 28° SSE 02:13:42 10° E visible
24 May 10.8 04:10:19 23° SW 04:28:13 68° SE 04:53:12 10° ENE visible
24 May 9.4 19:31:06 10° SW 19:33:10 12° SSW 19:35:15 10° S visible
25 May 11.5 00:45:20 14° SE 00:45:20 14° SE 00:49:41 10° ESE visible
25 May 10.6 03:02:33 36° S 03:11:46 49° SE 03:36:23 10° ENE visible
25 May 10.8 05:20:46 10° WSW 05:45:34 80° NW 06:09:06 10° NE visible
25 May 8.5 18:17:08 10° W 18:20:46 25° SSW 18:24:55 10° SSE visible
26 May 10.8 01:54:47 33° SSE 01:55:43 33° SE 02:16:53 10° E visible
26 May 10.6 04:12:00 26° SW 04:28:57 78° SE 04:54:31 10° ENE visible
27 May 11.4 00:47:00 17° SE 00:47:00 17° SE 00:54:03 10° ESE visible
27 May 10.4 03:04:13 43° SSW 03:12:41 57° SE 03:38:12 10° ENE visible
27 May 10.8 05:22:06 10° WSW 05:46:19 69° NW 06:10:01 10° NE visible
27 May 9.1 18:20:00 10° WSW 18:22:28 14° SSW 18:25:06 10° S visible
28 May 10.7 01:56:26 39° SE 01:56:58 39° SE 02:19:32 10° E visible
28 May 10.6 04:13:39 28° SW 04:29:39 90° SE 04:55:36 10° NE visible
29 May 11.3 00:48:37 20° ESE 00:48:37 20° ESE 00:57:54 10° E visible
29 May 10.2 03:05:50 50° SSW 03:13:27 67° SE 03:39:39 10° ENE visible
29 May 10.9 05:23:41 10° WSW 05:47:11 59° NW 06:10:49 10° NE visible
30 May 10.5 01:58:00 47° SE 01:58:00 47° SE 02:21:41 10° ENE visible
30 May 10.5 04:15:13 29° WSW 04:30:23 79° NW 04:56:29 10° NE visible
